Location: Wheeling
(40.0640°N, 80.7210°W)
Time: 19:34:47
(UTC-05:00)

ITAMSAT 1 - Pass Details

Date: 24 October 2021
Orbit: 784 x 796 km, 98.9° (Epoch: 01 December)

Event Time Altitude Azimuth Distance (km) Brightness Sun altitude
Rises 19:08:10 0° 144° (SE) 3,260 10.6 -8.0°
Reaches altitude 10° 19:10:35 10° 137° (SE) 2,337 9.8 -8.4°
Maximum altitude 19:15:22 40° 69° (ENE) 1,142 8.1 -9.3°
Drops below altitude 10° 19:20:11 10° 1° (N) 2,355 10.0 -10.2°
Sets 19:22:38 0° 354° (N) 3,290 10.9 -10.7°
